| time (UTC) | temp F | wind direction | speed knots | gust knots | rain 1hr in | rain 24hr in | rain mn in | humidity % | barometer mb |
| 20260510190604 | 67 | 67 | 1.7 | 5.2 | 0.00 | 0.32 | 0.00 | 84 | 1012.4 |
| 20260510190040 | 67 | 40 | 2.6 | 6.1 | 0.00 | 0.32 | 0.00 | 86 | 1012.5 |
| 20260510185525 | 67 | 92 | 1.7 | 6.1 | 0.00 | 0.33 | 0.00 | 90 | 1012.5 |
| 20260510185043 | 67 | 145 | 1.7 | 6.1 | 0.00 | 0.33 | 0.00 | 91 | 1012.4 |
| 20260510184559 | 66 | 140 | 2.6 | 7.0 | 0.00 | 0.33 | 0.00 | 95 | 1012.5 |
| 20260510184035 | 66 | 213 | 3.5 | 7.0 | 0.00 | 0.33 | 0.00 | 90 | 1012.6 |
| 20260510183534 | 67 | 119 | 3.5 | 9.6 | 0.00 | 0.33 | 0.00 | 92 | 1012.6 |
| 20260510183052 | 67 | 141 | 1.7 | 7.8 | 0.00 | 0.33 | 0.00 | 93 | 1012.5 |
| 20260510182556 | 67 | 116 | 1.7 | 6.1 | 0.00 | 0.33 | 0.00 | 93 | 1012.6 |
| 20260510182029 | 68 | 118 | 2.6 | 7.0 | 0.00 | 0.33 | 0.00 | 87 | 1012.7 |
| 20260510181525 | 68 | 106 | 2.6 | 8.7 | 0.00 | 0.33 | 0.00 | 89 | 1012.7 |
| 20260510181103 | 68 | 102 | 2.6 | 8.7 | 0.00 | 0.33 | 0.00 | 88 | 1012.7 |
| 20260510180540 | 69 | 139 | 3.5 | 7.0 | 0.00 | 0.33 | 0.00 | 89 | 1012.6 |
| 20260510180038 | 69 | 67 | 2.6 | 11.3 | 0.00 | 0.33 | 0.00 | 94 | 1012.6 |
| 20260510175536 | 68 | 91 | 2.6 | 11.3 | 0.00 | 0.33 | 0.00 | 89 | 1012.5 |
| 20260510175056 | 67 | 139 | 2.6 | 7.0 | 0.00 | 0.33 | 0.00 | 93 | 1012.6 |
| 20260510174527 | 67 | 346 | 2.6 | 7.0 | 0.00 | 0.33 | 0.00 | 89 | 1012.8 |
| 20260510174033 | 68 | 155 | 3.5 | 7.8 | 0.00 | 0.33 | 0.00 | 94 | 1012.7 |
| 20260510173531 | 68 | 171 | 2.6 | 7.8 | 0.00 | 0.33 | 0.00 | 90 | 1012.5 |
| 20260510173033 | 68 | 69 | 1.7 | 3.5 | 0.00 | 0.33 | 0.00 | 92 | 1012.4 |
| 20260510172029 | 65 | 142 | 3.5 | 6.1 | 0.00 | 0.33 | 0.00 | 92 | 1012.5 |
| 20260510171532 | 66 | 26 | 0.9 | 7.8 | 0.00 | 0.33 | 0.00 | 93 | 1012.5 |
| 20260510171032 | 66 | 78 | 0.9 | 7.8 | 0.00 | 0.33 | 0.00 | 97 | 1012.4 |
| 20260510170551 | 66 | 336 | 2.6 | 8.7 | 0.00 | 0.33 | 0.00 | 94 | 1012.5 |
| 20260510170027 | 66 | 105 | 4.3 | 8.7 | 0.00 | 0.33 | 0.00 | 94 | 1012.6 |
| 20260510165526 | 65 | 86 | 2.6 | 8.7 | 0.00 | 0.34 | 0.00 | 96 | 1012.5 |
| 20260510165036 | 65 | 336 | 2.6 | 7.8 | 0.00 | 0.34 | 0.00 | 96 | 1012.6 |
| 20260510164531 | 66 | 123 | 2.6 | 6.1 | 0.00 | 0.34 | 0.00 | 94 | 1012.6 |
| 20260510164033 | 64 | 137 | 2.6 | 6.1 | 0.00 | 0.34 | 0.00 | 95 | 1012.7 |
| 20260510163043 | 65 | 183 | 2.6 | 7.0 | 0.00 | 0.34 | 0.00 | 93 | 1012.8 |
| 20260510162604 | 64 | 140 | 2.6 | 8.7 | 0.00 | 0.34 | 0.00 | 95 | 1012.8 |
| 20260510162104 | 64 | 101 | 3.5 | 8.7 | 0.00 | 0.34 | 0.00 | 100 | 1013.0 |
| 20260510161528 | 63 | 78 | 1.7 | 7.8 | 0.00 | 0.34 | 0.00 | 100 | 1012.9 |
| 20260510161047 | 63 | 144 | 4.3 | 6.1 | 0.00 | 0.34 | 0.00 | 98 | 1012.9 |
| 20260510160527 | 63 | 85 | 2.6 | 6.1 | 0.00 | 0.34 | 0.00 | 99 | 1012.8 |
| 20260510160026 | 63 | 101 | 1.7 | 2.6 | 0.00 | 0.34 | 0.00 | 97 | 1012.8 |
| 20260510155530 | 65 | 134 | 1.7 | 5.2 | 0.00 | 0.34 | 0.00 | 96 | 1012.8 |
| 20260510155031 | 64 | 146 | 2.6 | 5.2 | 0.00 | 0.34 | 0.00 | 100 | 1012.9 |
| 20260510154532 | 62 | 117 | 1.7 | 6.1 | 0.00 | 0.34 | 0.00 | 100 | 1012.9 |
| 20260510154052 | 63 | 163 | 1.7 | 7.8 | 0.00 | 0.34 | 0.00 | 100 | 1013.1 |
| 20260510153533 | 64 | 105 | 1.7 | 7.8 | 0.00 | 0.34 | 0.00 | 99 | 1012.9 |
| 20260510153033 | 64 | 94 | 0.9 | 6.1 | 0.00 | 0.34 | 0.00 | 99 | 1013.1 |
| 20260510152534 | 64 | 234 | 3.5 | 7.8 | 0.00 | 0.34 | 0.00 | 96 | 1013.1 |
| 20260510152055 | 63 | 130 | 1.7 | 7.8 | 0.00 | 0.34 | 0.00 | 98 | 1013.1 |
| 20260510151535 | 62 | 131 | 2.6 | 5.2 | 0.00 | 0.34 | 0.00 | 99 | 1013.2 |
| 20260510151035 | 61 | 5 | 1.7 | 6.1 | 0.00 | 0.34 | 0.00 | 98 | 1013.2 |
| 20260510150537 | 61 | 64 | 1.7 | 7.8 | 0.00 | 0.34 | 0.00 | 100 | 1013.2 |
| 20260510150037 | 61 | 209 | 1.7 | 7.8 | 0.00 | 0.34 | 0.00 | 98 | 1013.2 |
| 20260510145538 | 61 | 122 | 2.6 | 5.2 | 0.00 | 0.34 | 0.00 | 100 | 1013.1 |
| 20260510145042 | 61 | 149 | 1.7 | 5.2 | 0.00 | 0.34 | 0.00 | 98 | 1013.1 |
| 20260510144543 | 61 | 155 | 1.7 | 7.0 | 0.00 | 0.34 | 0.00 | 98 | 1013.0 |
| 20260510144044 | 61 | 139 | 2.6 | 7.0 | 0.00 | 0.34 | 0.00 | 98 | 1013.0 |
| 20260510143035 | 61 | 136 | 2.6 | 7.0 | 0.00 | 0.34 | 0.00 | 97 | 1012.9 |
| 20260510142536 | 61 | 211 | 0.9 | 7.8 | 0.00 | 0.34 | 0.00 | 100 | 1012.9 |
| 20260510142036 | 60 | 114 | 3.5 | 7.8 | 0.00 | 0.34 | 0.00 | 99 | 1012.9 |
| 20260510141537 | 60 | 142 | 1.7 | 7.8 | 0.00 | 0.34 | 0.00 | 99 | 1013.0 |
| 20260510141037 | 60 | 213 | 1.7 | 7.8 | 0.00 | 0.34 | 0.00 | 99 | 1013.0 |
| 20260510140537 | 59 | 145 | 2.6 | 7.8 | 0.00 | 0.34 | 0.00 | 100 | 1013.1 |
| 20260510140059 | 58 | 105 | 3.5 | 7.8 | 0.00 | 0.34 | 0.00 | 100 | 1013.0 |
| 20260510135537 | 58 | 147 | 1.7 | 5.2 | 0.00 | 0.34 | 0.00 | 99 | 1012.9 |
| 20260510135038 | 58 | 161 | 3.5 | 6.1 | 0.00 | 0.34 | 0.00 | 100 | 1012.9 |
| 20260510134538 | 57 | 119 | 1.7 | 5.2 | 0.00 | 0.34 | 0.00 | 100 | 1013.0 |
| 20260510134038 | 57 | 99 | 0.9 | 6.1 | 0.00 | 0.34 | 0.00 | 100 | 1012.8 |
| 20260510133538 | 55 | 153 | 1.7 | 6.1 | 0.00 | 0.34 | 0.00 | 100 | 1012.8 |
| 20260510133043 | 54 | 109 | 0.9 | 7.0 | 0.00 | 0.34 | 0.00 | 100 | 1012.8 |
| 20260510132544 | 54 | 97 | 0.9 | 7.0 | 0.00 | 0.34 | 0.00 | 100 | 1012.7 |
| 20260510132105 | 54 | 113 | 0.9 | 3.5 | 0.00 | 0.34 | 0.00 | 100 | 1012.8 |
| 20260510131544 | 53 | 110 | 1.7 | 2.6 | 0.00 | 0.34 | 0.00 | 100 | 1012.9 |
| 20260510131105 | 53 | 138 | 0.9 | 2.6 | 0.00 | 0.34 | 0.00 | 100 | 1012.8 |
| 20260510130543 | 53 | 140 | 0.9 | 2.6 | 0.00 | 0.34 | 0.00 | 100 | 1012.8 |
| 20260510130042 | 53 | 140 | 1.7 | 2.6 | 0.00 | 0.34 | 0.00 | 100 | 1012.8 |
| 20260510125544 | 53 | 160 | 0.9 | 1.7 | 0.00 | 0.34 | 0.00 | 100 | 1013.0 |
| 20260510125024 | 53 | 160 | 0.9 | 2.6 | 0.00 | 0.34 | 0.00 | 100 | 1012.8 |
| 20260510124525 | 53 | 169 | 1.7 | 2.6 | 0.00 | 0.34 | 0.00 | 100 | 1012.6 |
| 20260510124044 | 53 | 125 | 0.0 | 2.6 | 0.00 | 0.34 | 0.00 | 100 | 1012.6 |
| 20260510123543 | 53 | 124 | 0.0 | 1.7 | 0.00 | 0.34 | 0.00 | 100 | 1012.6 |
| 20260510123024 | 52 | 123 | 0.0 | 1.7 | 0.00 | 0.34 | 0.00 | 100 | 1012.6 |
| 20260510122525 | 52 | 123 | 0.9 | 2.6 | 0.00 | 0.34 | 0.00 | 100 | 1012.5 |
| 20260510122029 | 53 | 123 | 0.9 | 2.6 | 0.00 | 0.34 | 0.00 | 100 | 1012.5 |
| 20260510121528 | 53 | 123 | 0.9 | 3.5 | 0.00 | 0.34 | 0.00 | 100 | 1012.5 |
| 20260510121029 | 52 | 123 | 0.9 | 3.5 | 0.00 | 0.34 | 0.00 | 100 | 1012.5 |
| 20260510120549 | 52 | 123 | 1.7 | 3.5 | 0.00 | 0.34 | 0.00 | 100 | 1012.4 |
| 20260510120029 | 52 | 115 | 1.7 | 2.6 | 0.00 | 0.34 | 0.00 | 100 | 1012.4 |
| 20260510115529 | 51 | 115 | 0.0 | 1.7 | 0.00 | 0.34 | 0.00 | 100 | 1012.4 |
| 20260510115030 | 51 | 115 | 0.9 | 2.6 | 0.00 | 0.34 | 0.00 | 100 | 1012.4 |
| 20260510114527 | 50 | 115 | 0.9 | 2.6 | 0.00 | 0.34 | 0.00 | 100 | 1012.4 |
| 20260510114028 | 50 | 114 | 0.0 | 1.7 | 0.00 | 0.34 | 0.00 | 100 | 1012.4 |
| 20260510113527 | 50 | 114 | 0.0 | 1.7 | 0.00 | 0.34 | 0.00 | 100 | 1012.3 |
| 20260510113028 | 49 | 114 | 0.0 | 0.9 | 0.00 | 0.34 | 0.00 | 100 | 1012.2 |
| 20260510112528 | 49 | 114 | 0.0 | 0.9 | 0.00 | 0.34 | 0.00 | 100 | 1012.2 |
| 20260510112029 | 49 | 114 | 0.0 | 0.9 | 0.00 | 0.34 | 0.00 | 100 | 1012.1 |
| 20260510111529 | 49 | 114 | 0.0 | 1.7 | 0.00 | 0.34 | 0.00 | 100 | 1012.0 |
| 20260510111033 | 49 | 114 | 0.0 | 2.6 | 0.00 | 0.34 | 0.00 | 100 | 1011.9 |
| 20260510110554 | 49 | 115 | 0.9 | 2.6 | 0.00 | 0.34 | 0.00 | 100 | 1012.0 |
| 20260510110033 | 49 | 114 | 0.0 | 1.7 | 0.00 | 0.34 | 0.00 | 100 | 1012.1 |
| 20260510105531 | 49 | 146 | 0.0 | 1.7 | 0.00 | 0.35 | 0.00 | 100 | 1012.1 |
| 20260510105031 | 49 | 146 | 0.9 | 1.7 | 0.00 | 0.35 | 0.00 | 100 | 1011.9 |
| 20260510104529 | 49 | 146 | 0.9 | 3.5 | 0.00 | 0.35 | 0.00 | 100 | 1011.8 |
| 20260510104051 | 49 | 146 | 0.9 | 3.5 | 0.00 | 0.35 | 0.00 | 100 | 1011.9 |
| 20260510103529 | 49 | 149 | 0.0 | 1.7 | 0.00 | 0.35 | 0.00 | 100 | 1011.9 |
| 20260510103031 | 49 | 149 | 0.0 | 4.3 | 0.00 | 0.35 | 0.00 | 100 | 1011.8 |
| 20260510102529 | 49 | 181 | 0.9 | 4.3 | 0.00 | 0.35 | 0.00 | 100 | 1011.7 |
| 20260510102031 | 49 | 97 | 0.9 | 2.6 | 0.00 | 0.35 | 0.00 | 100 | 1011.6 |
| 20260510101532 | 49 | 97 | 0.9 | 2.6 | 0.00 | 0.35 | 0.00 | 100 | 1011.5 |
| 20260510101052 | 49 | 97 | 1.7 | 1.7 | 0.00 | 0.35 | 0.00 | 100 | 1011.5 |
| 20260510100533 | 49 | 96 | 0.0 | 1.7 | 0.00 | 0.35 | 0.00 | 100 | 1011.6 |
| 20260510100032 | 48 | 96 | 0.9 | 1.7 | 0.00 | 0.35 | 0.00 | 100 | 1011.6 |
| 20260510095533 | 49 | 148 | 0.0 | 0.9 | 0.00 | 0.37 | 0.00 | 100 | 1011.4 |
| 20260510095054 | 48 | 148 | 0.0 | 2.6 | 0.00 | 0.37 | 0.00 | 100 | 1011.2 |
| 20260510094537 | 48 | 148 | 0.9 | 2.6 | 0.00 | 0.37 | 0.00 | 100 | 1011.1 |
| 20260510094038 | 48 | 175 | 0.9 | 2.6 | 0.00 | 0.37 | 0.00 | 100 | 1011.2 |
| 20260510093558 | 48 | 178 | 0.9 | 5.2 | 0.00 | 0.37 | 0.00 | 100 | 1011.2 |
| 20260510093058 | 48 | 112 | 0.9 | 2.6 | 0.00 | 0.37 | 0.00 | 100 | 1011.1 |
| 20260510092537 | 49 | 111 | 0.9 | 2.6 | 0.00 | 0.37 | 0.00 | 100 | 1011.4 |
| 20260510092038 | 48 | 111 | 0.0 | 0.0 | 0.00 | 0.37 | 0.00 | 100 | 1011.4 |
| 20260510091538 | 48 | 111 | 0.0 | 0.0 | 0.00 | 0.37 | 0.00 | 100 | 1011.5 |
| 20260510091039 | 48 | 111 | 0.0 | 0.0 | 0.00 | 0.37 | 0.00 | 100 | 1011.4 |
| 20260510090539 | 48 | 111 | 0.0 | 0.0 | 0.00 | 0.37 | 0.00 | 100 | 1011.4 |
| 20260510090040 | 48 | 111 | 0.0 | 0.0 | 0.00 | 0.37 | 0.00 | 100 | 1011.4 |
| 20260510085541 | 48 | 111 | 0.0 | 1.7 | 0.00 | 0.40 | 0.00 | 100 | 1011.3 |
| 20260510085040 | 48 | 111 | 0.9 | 1.7 | 0.00 | 0.40 | 0.00 | 100 | 1011.3 |
| 20260510084601 | 48 | 111 | 0.9 | 1.7 | 0.00 | 0.40 | 0.00 | 100 | 1011.4 |
| 20260510084041 | 48 | 111 | 0.9 | 2.6 | 0.00 | 0.40 | 0.00 | 100 | 1011.6 |
| 20260510083602 | 48 | 103 | 0.9 | 2.6 | 0.00 | 0.40 | 0.00 | 100 | 1011.7 |
| 20260510083039 | 48 | 103 | 0.9 | 2.6 | 0.00 | 0.40 | 0.00 | 100 | 1011.7 |
| 20260510082534 | 48 | 103 | 0.9 | 1.7 | 0.00 | 0.40 | 0.00 | 100 | 1011.7 |
| 20260510082034 | 48 | 103 | 0.0 | 1.7 | 0.00 | 0.40 | 0.00 | 100 | 1011.8 |
| 20260510081550 | 48 | 103 | 0.0 | 1.7 | 0.00 | 0.40 | 0.00 | 100 | 1011.7 |
| 20260510081046 | 48 | 103 | 0.0 | 1.7 | 0.00 | 0.40 | 0.00 | 100 | 1011.6 |
| 20260510080024 | 48 | 102 | 0.0 | 2.6 | 0.00 | 0.40 | 0.00 | 100 | 1011.7 |
| 20260510075524 | 48 | 102 | 1.7 | 2.6 | 0.00 | 0.40 | 0.00 | 100 | 1011.6 |
| 20260510075040 | 49 | 101 | 0.9 | 2.6 | 0.00 | 0.40 | 0.00 | 100 | 1011.8 |
| 20260510074537 | 49 | 101 | 0.0 | 1.7 | 0.00 | 0.40 | 0.00 | 100 | 1011.8 |
| 20260510074032 | 49 | 101 | 0.0 | 3.5 | 0.00 | 0.40 | 0.00 | 100 | 1011.8 |
| 20260510073529 | 49 | 101 | 0.9 | 3.5 | 0.00 | 0.40 | 0.00 | 100 | 1011.8 |
| 20260510073106 | 49 | 101 | 0.9 | 2.6 | 0.00 | 0.40 | 0.00 | 100 | 1011.7 |
| 20260510072540 | 49 | 156 | 0.0 | 2.6 | 0.00 | 0.40 | 0.00 | 100 | 1011.5 |
| 20260510072035 | 49 | 158 | 0.0 | 2.6 | 0.00 | 0.40 | 0.00 | 100 | 1011.4 |
| 20260510071532 | 49 | 150 | 0.0 | 2.6 | 0.00 | 0.40 | 0.00 | 100 | 1011.3 |
| 20260510071047 | 49 | 153 | 0.9 | 2.6 | 0.00 | 0.40 | 0.00 | 100 | 1011.2 |
| 20260510070543 | 49 | 135 | 0.0 | 1.7 | 0.00 | 0.40 | 0.00 | 100 | 1011.3 |
| 20260510070037 | 49 | 137 | 0.0 | 3.5 | 0.00 | 0.40 | 0.00 | 100 | 1011.2 |
| 20260510065559 | 49 | 137 | 0.9 | 3.5 | 0.00 | 0.40 | 0.00 | 100 | 1011.3 |
| 20260510065038 | 49 | 119 | 0.0 | 2.6 | 0.00 | 0.40 | 0.00 | 100 | 1011.3 |
| 20260510064539 | 49 | 119 | 0.9 | 2.6 | 0.00 | 0.40 | 0.00 | 100 | 1011.5 |
| 20260510063528 | 49 | 118 | 0.0 | 1.7 | 0.00 | 0.40 | 0.00 | 100 | 1011.4 |
| 20260510063029 | 49 | 118 | 0.9 | 2.6 | 0.00 | 0.40 | 0.00 | 100 | 1011.5 |
| 20260510062529 | 49 | 117 | 0.0 | 1.7 | 0.00 | 0.40 | 0.00 | 100 | 1011.4 |
| 20260510062030 | 49 | 117 | 0.0 | 4.3 | 0.00 | 0.40 | 0.00 | 100 | 1011.2 |
| 20260510061530 | 49 | 118 | 1.7 | 4.3 | 0.00 | 0.40 | 0.00 | 100 | 1011.3 |
| 20260510061035 | 49 | 132 | 0.0 | 1.7 | 0.00 | 0.40 | 0.00 | 100 | 1011.3 |
| 20260510060536 | 49 | 132 | 0.0 | 2.6 | 0.00 | 0.40 | 0.00 | 100 | 1011.3 |
| 20260510060037 | 49 | 132 | 0.0 | 2.6 | 0.00 | 0.40 | 0.00 | 100 | 1011.1 |
| 20260510055537 | 49 | 132 | 0.0 | 2.6 | 0.00 | 0.40 | 0.00 | 100 | 1011.0 |
| 20260510055038 | 49 | 130 | 0.0 | 0.0 | 0.00 | 0.40 | 0.00 | 100 | 1011.1 |
| 20260510054537 | 49 | 130 | 0.0 | 0.0 | 0.00 | 0.40 | 0.00 | 100 | 1011.1 |
| 20260510054038 | 49 | 130 | 0.0 | 0.0 | 0.00 | 0.40 | 0.00 | 100 | 1011.1 |
| 20260510053538 | 49 | 130 | 0.0 | 0.0 | 0.00 | 0.40 | 0.00 | 100 | 1011.1 |
| 20260510053039 | 49 | 134 | 0.0 | 0.0 | 0.00 | 0.40 | 0.00 | 100 | 1011.2 |
| 20260510052539 | 49 | 134 | 0.0 | 0.0 | 0.00 | 0.40 | 0.00 | 100 | 1011.2 |
| 20260510052100 | 49 | 134 | 0.0 | 0.9 | 0.00 | 0.40 | 0.00 | 100 | 1011.2 |
| 20260510051031 | 49 | 134 | 0.0 | 2.6 | 0.00 | 0.40 | 0.00 | 100 | 1011.1 |
| 20260510050531 | 49 | 134 | 0.0 | 2.6 | 0.00 | 0.40 | 0.00 | 100 | 1011.2 |
| 20260510050052 | 49 | 132 | 0.0 | 0.0 | 0.00 | 0.40 | 0.00 | 100 | 1011.3 |
| 20260510045533 | 49 | 132 | 0.0 | 0.0 | 0.00 | 0.40 | 0.00 | 100 | 1011.3 |
| 20260510045033 | 49 | 132 | 0.0 | 0.0 | 0.00 | 0.40 | 0.00 | 100 | 1011.3 |
| 20260510044555 | 50 | 132 | 0.0 | 0.0 | 0.00 | 0.40 | 0.00 | 100 | 1011.2 |
| 20260510043524 | 50 | 132 | 0.0 | 1.7 | 0.00 | 0.40 | 0.00 | 100 | 1011.2 |
| 20260510043029 | 50 | 132 | 0.0 | 3.5 | 0.00 | 0.40 | 0.00 | 100 | 1011.3 |
| 20260510042551 | 50 | 132 | 0.9 | 3.5 | 0.00 | 0.40 | 0.00 | 100 | 1011.3 |
| 20260510042029 | 50 | 138 | 0.0 | 1.7 | 0.00 | 0.40 | 0.00 | 100 | 1011.2 |
| 20260510041530 | 50 | 138 | 0.0 | 0.0 | 0.00 | 0.40 | 0.00 | 100 | 1011.2 |
| 20260510041030 | 50 | 138 | 0.0 | 2.6 | 0.00 | 0.40 | 0.00 | 100 | 1011.1 |
| 20260510040531 | 50 | 138 | 0.0 | 2.6 | 0.00 | 0.40 | 0.00 | 100 | 1011.2 |
| 20260510040032 | 50 | 140 | 0.0 | 1.7 | 0.00 | 0.40 | 0.00 | 100 | 1011.2 |
| 20260510035534 | 50 | 140 | 0.0 | 0.9 | 0.00 | 0.40 | 0.40 | 100 | 1011.1 |
| 20260510035056 | 50 | 140 | 0.0 | 0.9 | 0.00 | 0.40 | 0.40 | 100 | 1011.1 |
| 20260510034534 | 50 | 140 | 0.0 | 1.7 | 0.00 | 0.40 | 0.40 | 100 | 1011.2 |
| 20260510034055 | 50 | 140 | 0.9 | 1.7 | 0.00 | 0.40 | 0.40 | 100 | 1011.3 |
| 20260510033534 | 50 | 140 | 0.0 | 0.9 | 0.00 | 0.40 | 0.40 | 100 | 1011.3 |
| 20260510033035 | 50 | 140 | 0.0 | 0.9 | 0.00 | 0.40 | 0.40 | 100 | 1011.3 |
| 20260510032534 | 50 | 140 | 0.0 | 0.9 | 0.00 | 0.40 | 0.40 | 100 | 1011.3 |
| 20260510032036 | 50 | 140 | 0.0 | 0.9 | 0.00 | 0.40 | 0.40 | 100 | 1011.3 |
| 20260510031536 | 50 | 140 | 0.0 | 0.9 | 0.00 | 0.40 | 0.40 | 100 | 1011.4 |
| 20260510031037 | 50 | 140 | 0.0 | 0.0 | 0.00 | 0.40 | 0.40 | 100 | 1011.3 |
| 20260510030537 | 50 | 140 | 0.0 | 0.0 | 0.00 | 0.40 | 0.40 | 100 | 1011.4 |
| 20260510030038 | 50 | 140 | 0.0 | 1.7 | 0.00 | 0.40 | 0.40 | 100 | 1011.4 |
| 20260510025543 | 50 | 140 | 0.0 | 1.7 | 0.00 | 0.40 | 0.40 | 100 | 1011.4 |
| 20260510025044 | 50 | 140 | 0.0 | 0.9 | 0.00 | 0.40 | 0.40 | 100 | 1011.4 |
| 20260510024543 | 50 | 140 | 0.0 | 0.9 | 0.00 | 0.40 | 0.40 | 100 | 1011.4 |
| 20260510024044 | 50 | 140 | 0.0 | 0.9 | 0.00 | 0.40 | 0.40 | 100 | 1011.3 |
| 20260510023605 | 50 | 140 | 0.0 | 0.9 | 0.00 | 0.40 | 0.40 | 100 | 1011.3 |
| 20260510023025 | 50 | 140 | 0.0 | 2.6 | 0.00 | 0.40 | 0.40 | 100 | 1011.1 |
| 20260510022525 | 50 | 140 | 0.0 | 2.6 | 0.00 | 0.40 | 0.40 | 100 | 1011.2 |
| 20260510022026 | 50 | 141 | 0.0 | 0.9 | 0.00 | 0.40 | 0.40 | 100 | 1011.1 |
| 20260510021525 | 50 | 141 | 0.0 | 0.0 | 0.00 | 0.40 | 0.40 | 100 | 1011.2 |
| 20260510021026 | 50 | 141 | 0.0 | 0.9 | 0.00 | 0.40 | 0.40 | 100 | 1011.2 |
| 20260510020547 | 50 | 141 | 0.0 | 1.7 | 0.00 | 0.40 | 0.40 | 100 | 1011.2 |
| 20260510020026 | 50 | 141 | 0.0 | 1.7 | 0.00 | 0.40 | 0.40 | 100 | 1011.2 |
| 20260510015526 | 50 | 141 | 0.9 | 1.7 | 0.00 | 0.40 | 0.40 | 100 | 1011.3 |
| 20260510015046 | 50 | 141 | 0.0 | 2.6 | 0.00 | 0.40 | 0.40 | 100 | 1011.3 |
| 20260510014525 | 50 | 141 | 0.9 | 2.6 | 0.00 | 0.40 | 0.40 | 100 | 1011.3 |
| 20260510014029 | 50 | 140 | 0.9 | 1.7 | 0.00 | 0.40 | 0.40 | 100 | 1011.3 |
| 20260510013530 | 50 | 140 | 0.0 | 0.0 | 0.00 | 0.40 | 0.40 | 100 | 1011.4 |
| 20260510013032 | 50 | 140 | 0.0 | 0.0 | 0.00 | 0.40 | 0.40 | 100 | 1011.4 |
| 20260510012551 | 50 | 140 | 0.0 | 0.0 | 0.00 | 0.40 | 0.40 | 100 | 1011.3 |
| 20260510012051 | 50 | 140 | 0.0 | 0.0 | 0.00 | 0.40 | 0.40 | 100 | 1011.3 |
| 20260510011531 | 50 | 140 | 0.0 | 0.0 | 0.00 | 0.40 | 0.40 | 100 | 1011.3 |
| 20260510011032 | 50 | 140 | 0.0 | 1.7 | 0.00 | 0.40 | 0.40 | 100 | 1011.2 |
| 20260510010551 | 50 | 140 | 0.0 | 4.3 | 0.00 | 0.40 | 0.40 | 100 | 1011.1 |
| 20260510010030 | 50 | 153 | 1.7 | 4.3 | 0.00 | 0.40 | 0.40 | 100 | 1011.0 |
| 20260510005530 | 50 | 155 | 0.0 | 4.3 | 0.00 | 0.40 | 0.40 | 100 | 1010.9 |
| 20260510005031 | 50 | 155 | 0.9 | 4.3 | 0.00 | 0.40 | 0.40 | 100 | 1010.8 |
| 20260510004530 | 50 | 120 | 0.9 | 2.6 | 0.00 | 0.40 | 0.40 | 100 | 1010.8 |
| 20260510004052 | 51 | 120 | 1.7 | 3.5 | 0.00 | 0.40 | 0.40 | 100 | 1010.8 |
| 20260510003531 | 51 | 119 | 0.9 | 3.5 | 0.00 | 0.40 | 0.40 | 100 | 1010.7 |
| 20260510003031 | 51 | 109 | 0.9 | 1.7 | 0.00 | 0.40 | 0.40 | 100 | 1010.6 |
| 20260510002042 | 51 | 109 | 0.0 | 1.7 | 0.00 | 0.40 | 0.40 | 100 | 1010.6 |
| 20260510001531 | 51 | 109 | 0.9 | 1.7 | 0.00 | 0.40 | 0.40 | 100 | 1010.6 |
| 20260510001052 | 51 | 109 | 0.0 | 5.2 | 0.00 | 0.40 | 0.40 | 100 | 1010.6 |
| 20260510000531 | 51 | 149 | 0.0 | 4.3 | 0.00 | 0.40 | 0.40 | 100 | 1010.5 |
| 20260510000032 | 51 | 142 | 0.0 | 0.0 | 0.00 | 0.40 | 0.40 | 100 | 1010.5 |
| 20260509235536 | 51 | 142 | 0.0 | 0.9 | 0.00 | 0.40 | 0.40 | 100 | 1010.4 |
| 20260509235037 | 51 | 142 | 0.0 | 2.6 | 0.00 | 0.40 | 0.40 | 100 | 1010.4 |
| 20260509234559 | 51 | 142 | 0.9 | 1.7 | 0.00 | 0.40 | 0.40 | 100 | 1010.5 |
| 20260509234038 | 51 | 142 | 0.9 | 1.7 | 0.00 | 0.40 | 0.40 | 100 | 1010.4 |
| 20260509233539 | 51 | 142 | 0.0 | 1.7 | 0.00 | 0.40 | 0.40 | 100 | 1010.4 |
| 20260509233039 | 51 | 142 | 0.0 | 1.7 | 0.00 | 0.40 | 0.40 | 100 | 1010.4 |
| 20260509232540 | 51 | 142 | 0.0 | 2.6 | 0.00 | 0.40 | 0.40 | 100 | 1010.3 |
| 20260509232100 | 51 | 140 | 0.0 | 0.9 | 0.00 | 0.40 | 0.40 | 100 | 1010.3 |
| 20260509231600 | 51 | 140 | 0.0 | 1.7 | 0.00 | 0.40 | 0.40 | 100 | 1010.3 |
| 20260509231040 | 51 | 140 | 0.9 | 1.7 | 0.00 | 0.40 | 0.40 | 100 | 1010.5 |
| 20260509230541 | 51 | 140 | 0.9 | 2.6 | 0.00 | 0.40 | 0.40 | 100 | 1010.5 |
| 20260509230041 | 51 | 142 | 0.9 | 4.3 | 0.00 | 0.40 | 0.40 | 100 | 1010.4 |
| 20260509225543 | 51 | 165 | 1.7 | 4.3 | 0.01 | 0.40 | 0.40 | 100 | 1010.5 |
| 20260509225103 | 51 | 159 | 0.0 | 2.6 | 0.01 | 0.40 | 0.40 | 100 | 1010.6 |
| 20260509224544 | 51 | 170 | 0.9 | 3.5 | 0.02 | 0.40 | 0.40 | 100 | 1010.5 |
| 20260509224104 | 51 | 171 | 1.7 | 3.5 | 0.04 | 0.40 | 0.40 | 100 | 1010.5 |
| 20260509223604 | 51 | 167 | 0.9 | 5.2 | 0.05 | 0.40 | 0.40 | 100 | 1010.6 |
| 20260509223105 | 51 | 95 | 0.9 | 2.6 | 0.06 | 0.40 | 0.40 | 100 | 1010.7 |
| 20260509222544 | 51 | 88 | 0.0 | 3.5 | 0.07 | 0.40 | 0.40 | 100 | 1010.8 |
| 20260509222027 | 51 | 87 | 0.0 | 2.6 | 0.08 | 0.40 | 0.40 | 100 | 1010.8 |
| 20260509221529 | 51 | 86 | 0.0 | 0.0 | 0.08 | 0.40 | 0.40 | 100 | 1011.0 |
| 20260509221050 | 51 | 86 | 0.0 | 0.0 | 0.09 | 0.40 | 0.40 | 100 | 1011.1 |
| 20260509220529 | 51 | 86 | 0.0 | 1.7 | 0.09 | 0.40 | 0.40 | 100 | 1011.1 |
| 20260509220028 | 51 | 86 | 0.0 | 2.6 | 0.09 | 0.40 | 0.40 | 100 | 1011.1 |
| 20260509215529 | 51 | 86 | 0.9 | 2.6 | 0.09 | 0.39 | 0.39 | 100 | 1011.0 |
| 20260509215029 | 51 | 85 | 0.9 | 2.6 | 0.09 | 0.39 | 0.39 | 100 | 1011.1 |
| 20260509214530 | 51 | 85 | 0.9 | 3.5 | 0.08 | 0.38 | 0.38 | 100 | 1011.2 |
| 20260509214029 | 52 | 136 | 0.9 | 3.5 | 0.06 | 0.36 | 0.36 | 100 | 1011.2 |
| 20260509213041 | 52 | 88 | 0.0 | 0.9 | 0.05 | 0.34 | 0.34 | 100 | 1011.2 |
| 20260509212541 | 52 | 88 | 0.0 | 2.6 | 0.04 | 0.33 | 0.33 | 100 | 1011.3 |
| 20260509212042 | 52 | 88 | 0.9 | 2.6 | 0.03 | 0.32 | 0.32 | 100 | 1011.1 |
| 20260509211542 | 52 | 87 | 0.0 | 0.0 | 0.04 | 0.32 | 0.32 | 100 | 1011.0 |
| 20260509211104 | 52 | 87 | 0.0 | 0.0 | 0.03 | 0.31 | 0.31 | 100 | 1011.0 |
| 20260509210542 | 52 | 87 | 0.0 | 0.0 | 0.04 | 0.31 | 0.31 | 100 | 1011.0 |
| 20260509210043 | 52 | 87 | 0.0 | 0.0 | 0.05 | 0.31 | 0.31 | 100 | 1011.0 |
| 20260509205528 | 52 | 87 | 0.0 | 1.7 | 0.05 | 0.30 | 0.30 | 100 | 1011.0 |
| 20260509205029 | 52 | 87 | 0.0 | 1.7 | 0.06 | 0.30 | 0.30 | 100 | 1011.2 |
| 20260509204530 | 52 | 87 | 0.0 | 2.6 | 0.11 | 0.30 | 0.30 | 100 | 1011.1 |
| 20260509204029 | 52 | 87 | 0.0 | 2.6 | 0.12 | 0.30 | 0.30 | 100 | 1011.2 |
| 20260509203529 | 52 | 87 | 0.0 | 3.5 | 0.13 | 0.29 | 0.29 | 100 | 1011.3 |
| 20260509203030 | 52 | 87 | 0.0 | 3.5 | 0.14 | 0.29 | 0.29 | 100 | 1011.3 |
| 20260509202550 | 52 | 67 | 0.9 | 3.5 | 0.16 | 0.29 | 0.29 | 100 | 1011.4 |
| 20260509202030 | 52 | 66 | 0.9 | 3.5 | 0.16 | 0.28 | 0.29 | 100 | 1011.4 |
| 20260509201529 | 52 | 171 | 1.7 | 4.3 | 0.17 | 0.28 | 0.28 | 100 | 1011.5 |
| 20260509200541 | 53 | 121 | 2.6 | 6.1 | 0.18 | 0.27 | 0.27 | 100 | 1011.6 |
| 20260509195542 | 53 | 116 | 0.0 | 0.0 | 0.17 | 0.25 | 0.25 | 100 | 1011.7 |
| 20260509195042 | 53 | 116 | 0.0 | 0.0 | 0.15 | 0.23 | 0.23 | 100 | 1011.8 |
| 20260509194543 | 53 | 116 | 0.0 | 0.9 | 0.12 | 0.19 | 0.19 | 100 | 1011.7 |
| 20260509194043 | 53 | 116 | 0.0 | 0.9 | 0.11 | 0.18 | 0.18 | 100 | 1011.6 |
| 20260509193604 | 53 | 116 | 0.0 | 0.9 | 0.09 | 0.16 | 0.16 | 100 | 1011.7 |
| 20260509193042 | 53 | 116 | 0.0 | 2.6 | 0.08 | 0.15 | 0.15 | 100 | 1011.8 |
| 20260509192604 | 53 | 116 | 0.9 | 2.6 | 0.06 | 0.13 | 0.13 | 100 | 1011.7 |
| 20260509192028 | 54 | 116 | 0.0 | 0.9 | 0.05 | 0.12 | 0.12 | 100 | 1011.7 |
| 20260509191528 | 54 | 117 | 0.0 | 0.9 | 0.04 | 0.11 | 0.11 | 100 | 1011.7 |
| 20260509191048 | 54 | 117 | 0.0 | 2.6 | 0.03 | 0.10 | 0.10 | 100 | 1011.6 |